Location: Gradaro
(45.0833°N, 10.8833°E)
Time: 10:11:56
(UTC+00:00)

Cosmos 1898 Rocket - Pass Details

Date: 29 November 2020
Orbit: 754 x 783 km, 74.0° (Epoch: 23 January)

Event Time Altitude Azimuth Distance (km) Brightness Sun altitude
Rises 04:44:50 0° 205° (SSW) 3,244 6.6 -18.5°
Reaches altitude 10° 04:47:13 10° 207° (SSW) 2,324 5.8 -18.1°
Maximum altitude 04:52:30 73° 293° (WNW) 820 3.4 -17.2°
Drops below altitude 10° 04:57:51 10° 18° (NNE) 2,349 6.1 -16.3°
Sets 05:00:15 0° 20° (NNE) 3,282 6.8 -15.9°
